Time,TemperatureF,DewpointF,PressureIn,WindDirection,WindDirectionDegrees,WindSpeedMPH,WindSpeedGustMPH,Humidity,HourlyPrecipIn,Conditions,Clouds,dailyrainin,SolarRadiationWatts/m^2,SoftwareType,DateUTC
2013-06-20 00:01:00,51.0,50.0,-100.00,NNW,341,1.0,5.0,95,0.07,,,0.07,1.000000,,2013-06-20 07:01:00,
2013-06-20 00:10:00,50.0,49.0,-100.00,NNE,26,0.0,4.0,97,0.01,,,0.08,1.000000,,2013-06-20 07:10:00,
2013-06-20 00:34:00,50.0,49.0,-100.00,NNE,26,0.0,4.0,97,0.01,,,0.08,1.000000,,2013-06-20 07:34:00,
2013-06-20 00:44:00,50.0,49.0,-100.00,NNE,26,0.0,4.0,97,0.01,,,0.08,1.000000,,2013-06-20 07:44:00,
2013-06-20 00:53:00,50.0,49.0,-100.00,NNE,26,0.0,4.0,97,0.01,,,0.08,1.000000,,2013-06-20 07:53:00,
2013-06-20 01:02:00,50.0,49.0,-100.00,NNE,26,0.0,4.0,97,0.01,,,0.08,1.000000,,2013-06-20 08:02:00,
2013-06-20 01:10:00,50.0,49.0,-100.00,North,3,1.0,3.0,98,0.00,,,-99.99,1.000000,,2013-06-20 08:10:00,
2013-06-20 01:34:00,50.0,49.0,-100.00,North,3,1.0,3.0,98,0.00,,,-99.99,1.000000,,2013-06-20 08:34:00,
2013-06-20 01:43:00,50.0,49.0,-100.00,North,3,1.0,3.0,98,0.00,,,-99.99,1.000000,,2013-06-20 08:43:00,
2013-06-20 01:53:00,50.0,49.0,-100.00,North,3,1.0,3.0,98,0.00,,,-99.99,1.000000,,2013-06-20 08:53:00,
2013-06-20 02:01:00,50.0,49.0,-100.00,North,3,1.0,3.0,98,0.00,,,-99.99,1.000000,,2013-06-20 09:01:00,
2013-06-20 02:10:00,49.0,48.0,-100.00,NNE,19,0.0,5.0,97,0.00,,,0.08,1.000000,,2013-06-20 09:10:00,
2013-06-20 02:33:00,49.0,48.0,-100.00,NNE,19,0.0,5.0,97,0.00,,,0.08,1.000000,,2013-06-20 09:33:00,
2013-06-20 02:43:00,49.0,48.0,-100.00,NNE,19,0.0,5.0,97,0.00,,,0.08,1.000000,,2013-06-20 09:43:00,
2013-06-20 02:52:00,49.0,48.0,-100.00,NNE,19,0.0,5.0,97,0.00,,,0.08,1.000000,,2013-06-20 09:52:00,
2013-06-20 03:01:00,49.0,48.0,-100.00,NNE,19,0.0,5.0,97,0.00,,,0.08,1.000000,,2013-06-20 10:01:00,
2013-06-20 03:10:00,49.0,48.0,-100.00,NNE,19,0.0,0.0,98,0.00,,,0.08,1.000000,,2013-06-20 10:10:00,
2013-06-20 03:34:00,49.0,48.0,-100.00,NNE,19,0.0,0.0,98,0.00,,,0.08,1.000000,,2013-06-20 10:34:00,
2013-06-20 03:43:00,49.0,48.0,-100.00,NNE,19,0.0,0.0,98,0.00,,,0.08,1.000000,,2013-06-20 10:43:00,
2013-06-20 03:53:00,49.0,48.0,-100.00,NNE,19,0.0,0.0,98,0.00,,,0.08,1.000000,,2013-06-20 10:53:00,
2013-06-20 04:01:00,49.0,48.0,-100.00,NNE,19,0.0,0.0,98,0.00,,,0.08,1.000000,,2013-06-20 11:01:00,
2013-06-20 04:10:00,49.0,48.0,-100.00,NNE,19,0.0,0.0,98,0.00,,,0.08,1.000000,,2013-06-20 11:10:00,
2013-06-20 04:34:00,49.0,48.0,-100.00,NNE,19,0.0,0.0,98,0.00,,,0.08,1.000000,,2013-06-20 11:34:00,
2013-06-20 04:43:00,49.0,48.0,-100.00,NNE,19,0.0,0.0,98,0.00,,,0.08,1.000000,,2013-06-20 11:43:00,
2013-06-20 04:53:00,49.0,48.0,-100.00,NNE,19,0.0,0.0,98,0.00,,,0.08,1.000000,,2013-06-20 11:53:00,
2013-06-20 05:02:00,49.0,48.0,-100.00,NNE,19,0.0,0.0,98,0.00,,,0.08,1.000000,,2013-06-20 12:02:00,
2013-06-20 05:10:00,49.0,48.0,-100.00,NNE,19,0.0,0.0,98,0.00,,,0.08,1.000000,,2013-06-20 12:10:00,
2013-06-20 05:34:00,49.0,48.0,-100.00,NNE,19,0.0,0.0,98,0.00,,,0.08,1.000000,,2013-06-20 12:34:00,
2013-06-20 05:43:00,49.0,48.0,-100.00,NNE,19,0.0,0.0,98,0.00,,,0.08,1.000000,,2013-06-20 12:43:00,
2013-06-20 05:53:00,49.0,48.0,-100.00,NNE,19,0.0,0.0,98,0.00,,,0.08,1.000000,,2013-06-20 12:53:00,
2013-06-20 06:02:00,49.0,48.0,-100.00,NNE,19,0.0,0.0,98,0.00,,,0.08,1.000000,,2013-06-20 13:02:00,
2013-06-20 06:10:00,49.0,48.0,-100.00,NNE,19,0.0,0.0,98,0.00,,,0.08,10.000000,,2013-06-20 13:10:00,
2013-06-20 06:42:00,49.0,48.0,-100.00,NNE,19,0.0,0.0,98,0.00,,,0.08,10.000000,,2013-06-20 13:42:00,
2013-06-20 06:53:00,49.0,48.0,-100.00,NNE,19,0.0,0.0,98,0.00,,,0.08,10.000000,,2013-06-20 13:53:00,
2013-06-20 07:01:00,49.0,48.0,-100.00,NNE,19,0.0,0.0,98,0.00,,,0.08,10.000000,,2013-06-20 14:01:00,
2013-06-20 07:10:00,50.0,49.0,-100.00,SSE,154,0.0,2.0,98,0.00,,,0.08,40.000000,,2013-06-20 14:10:00,
2013-06-20 07:42:00,50.0,49.0,-100.00,SSE,154,0.0,2.0,98,0.00,,,0.08,40.000000,,2013-06-20 14:42:00,
2013-06-20 07:53:00,50.0,49.0,-100.00,SSE,154,0.0,2.0,98,0.00,,,0.08,40.000000,,2013-06-20 14:53:00,
2013-06-20 08:01:00,50.0,49.0,-100.00,SSE,154,0.0,2.0,98,0.00,,,0.08,40.000000,,2013-06-20 15:01:00,
2013-06-20 08:10:00,52.0,50.0,-100.00,SSE,147,0.0,2.0,92,0.00,,,0.08,106.000000,,2013-06-20 15:10:00,
2013-06-20 08:43:00,52.0,50.0,-100.00,SSE,147,0.0,2.0,92,0.00,,,0.08,106.000000,,2013-06-20 15:43:00,
2013-06-20 08:53:00,52.0,50.0,-100.00,SSE,147,0.0,2.0,92,0.00,,,0.08,106.000000,,2013-06-20 15:53:00,
2013-06-20 09:01:00,52.0,50.0,-100.00,SSE,147,0.0,2.0,92,0.00,,,0.08,106.000000,,2013-06-20 16:01:00,
2013-06-20 09:10:00,52.0,49.0,-100.00,South,179,0.0,2.0,91,0.00,,,0.08,87.000000,,2013-06-20 16:10:00,
2013-06-20 09:33:00,52.0,49.0,-100.00,South,179,0.0,2.0,91,0.00,,,0.08,87.000000,,2013-06-20 16:33:00,
2013-06-20 09:43:00,52.0,49.0,-100.00,South,179,0.0,2.0,91,0.00,,,0.08,87.000000,,2013-06-20 16:43:00,
2013-06-20 09:52:00,52.0,49.0,-100.00,South,179,0.0,2.0,91,0.00,,,0.08,87.000000,,2013-06-20 16:52:00,
2013-06-20 10:01:00,52.0,49.0,-100.00,South,179,0.0,2.0,91,0.00,,,0.08,87.000000,,2013-06-20 17:01:00,
2013-06-20 10:10:00,54.0,49.0,-100.00,SW,229,1.0,3.0,84,0.00,,,0.08,166.000000,,2013-06-20 17:10:00,
2013-06-20 10:43:00,54.0,49.0,-100.00,SW,229,1.0,3.0,84,0.00,,,0.08,166.000000,,2013-06-20 17:43:00,
2013-06-20 10:53:00,54.0,49.0,-100.00,SW,229,1.0,3.0,84,0.00,,,0.08,166.000000,,2013-06-20 17:53:00,
2013-06-20 11:01:00,54.0,49.0,-100.00,SW,229,1.0,3.0,84,0.00,,,0.08,166.000000,,2013-06-20 18:01:00,
2013-06-20 11:10:00,53.0,50.0,-100.00,NNW,345,1.0,5.0,89,0.02,,,0.10,167.000000,,2013-06-20 18:10:00,
2013-06-20 11:43:00,53.0,50.0,-100.00,NNW,345,1.0,5.0,89,0.02,,,0.10,167.000000,,2013-06-20 18:43:00,
2013-06-20 11:53:00,53.0,50.0,-100.00,NNW,345,1.0,5.0,89,0.02,,,0.10,167.000000,,2013-06-20 18:53:00,
2013-06-20 12:01:00,53.0,50.0,-100.00,NNW,345,1.0,5.0,89,0.02,,,0.10,167.000000,,2013-06-20 19:01:00,
2013-06-20 12:10:00,55.0,50.0,-100.00,SW,231,1.0,5.0,82,0.02,,,0.12,248.000000,,2013-06-20 19:10:00,
2013-06-20 12:34:00,55.0,50.0,-100.00,SW,231,1.0,5.0,82,0.02,,,0.12,248.000000,,2013-06-20 19:34:00,
2013-06-20 12:43:00,55.0,50.0,-100.00,SW,231,1.0,5.0,82,0.02,,,0.12,248.000000,,2013-06-20 19:43:00,
2013-06-20 12:52:00,55.0,50.0,-100.00,SW,231,1.0,5.0,82,0.02,,,0.12,248.000000,,2013-06-20 19:52:00,
2013-06-20 13:01:00,55.0,50.0,-100.00,SW,231,1.0,5.0,82,0.02,,,0.12,248.000000,,2013-06-20 20:01:00,
2013-06-20 13:10:00,55.0,52.0,-100.00,West,279,0.0,3.0,89,0.00,,,0.12,228.000000,,2013-06-20 20:10:00,
2013-06-20 13:43:00,55.0,52.0,-100.00,West,279,0.0,3.0,89,0.00,,,0.12,228.000000,,2013-06-20 20:43:00,
2013-06-20 13:52:00,55.0,52.0,-100.00,West,279,0.0,3.0,89,0.00,,,0.12,228.000000,,2013-06-20 20:52:00,
2013-06-20 14:01:00,55.0,52.0,-100.00,West,279,0.0,3.0,89,0.00,,,0.12,228.000000,,2013-06-20 21:01:00,
2013-06-20 14:10:00,56.0,51.0,-100.00,NW,325,1.0,3.0,84,0.00,,,0.12,239.000000,,2013-06-20 21:10:00,
2013-06-20 16:10:00,54.0,50.0,-100.00,NNW,347,3.0,10.0,86,0.02,,,0.19,220.000000,,2013-06-20 23:10:00,
2013-06-20 20:10:00,51.0,50.0,-100.00,NNW,328,0.0,1.0,97,0.04,,,0.31,14.000000,,2013-06-21 03:10:00,